Location: Kirtland Hills
(41.6239°N, 81.3071°W)
Time: 23:05:59
(UTC+00:00)

Cosmos 1408 - Pass Details

Date: 29 October 2020
Orbit: 470 x 492 km, 82.6° (Epoch: 29 November)

Event Time Altitude Azimuth Distance (km) Brightness Sun altitude
Rises 22:56:42 0° 10° (N) 2,558 6.0 -6.9°
Reaches altitude 10° 22:59:25 10° 31° (NNE) 1,677 4.9 -7.4°
Maximum altitude 23:01:50 17° 73° (ENE) 1,317 4.1 -7.9°
Drops below altitude 10° 23:04:15 10° 114° (ESE) 1,676 4.8 -8.3°
Sets 23:06:57 0° 136° (SE) 2,555 5.9 -8.8°
